Regional Weather Roundup
Issued by NWS Sterling, VA

Home | Current Version | Previous Version | Graphics & Text | Print | Product List | Glossary On
Versions: 1 2 3 4 5 6 7 8 9 10 11 12 13 14 15 16 17 18 19 20 21 22 23 24 25 26 27
000
ASUS41 KLWX 251511
RWRLWX

REGIONAL WEATHER ROUNDUP
NATIONAL WEATHER SERVICE BALTIMORE MD/WASHINGTON DC
1100 AM EDT TUE APR 25 2017

Note: "FAIR" indicates few or no clouds below 12,000 feet
with no significant weather and/or obstructions to visibility.
 TC=TEMPERATURE CELSIUS

 * =Non NWS site. Station does not report precipitation (e.g. rain,
    snow, etc.), thunder, or fog.

DCZ001-MDZ009-015-VAZ040>042-051-053>054-251600-
WASHINGTON METRO

CITY           SKY/WX    TMP DP  RH WIND       PRES   REMARKS
WASHINGTON NAT LGT RAIN  59  57  93 NE21G26   29.84F FOG
DULLES         LGT RAIN  57  54  89 NE13G22   29.84F
ANDREWS AFB    LGT RAIN  55  55 100 NE21G29   29.81F FOG
FT BELVOIR     CLOUDY    57  55  94 VRB7      29.81F
QUANTICO       LGT RAIN  59  58  96 NE23G31   29.80F FOG
COLLEGE PARK*  CLOUDY    56  53  91 NE10G22   29.85F
LEESBURG*      LGT RAIN  55  55 100 NE7       29.88F
MANASSAS*      LGT RAIN  58  56  93 NE15      29.82F

$$

MDZ006>007-011-014-251600-
BALTIMORE METRO

CITY           SKY/WX    TMP DP  RH WIND       PRES   REMARKS
BWI AIRPORT    CLOUDY    57  55  93 NE20G29   29.87F
MD SCIENCE CTR   N/A     60  52  74 MISG      29.88F
MARTIN STATE   LGT RAIN  57  55  94 NE8       29.91F
ANNAPOLIS      CLOUDY    58  55  90 NE12G23   29.85F
FORT MEADE*    CLOUDY    55  52  88 NE13G20   29.88F

$$

MDZ012-015-019>023-251600-
MARYLAND EASTERN SHORE

CITY           SKY/WX    TMP DP  RH WIND       PRES   REMARKS
OCEAN CITY     LGT RAIN  57  56  96 E17G26    29.77F FOG
SALISBURY      LGT RAIN  60  60 100 E22G28    29.75F FOG
BAY BRIDGE AP* CLOUDY    57  55  94 NE9G18    29.85F FOG
CAMBRIDGE*     MOSUNNY   59  57  94 NE17      29.79F FOG
EASTON*        LGT RAIN  59  55  88 NE21G28   29.87F FOG

$$

MDZ017>025-251600-
SOUTHERN MARYLAND

CITY           SKY/WX    TMP DP  RH WIND       PRES   REMARKS
PATUXENT RIVER LGT RAIN  59  59 100 NE22G32   29.75F
ST INIGOES     LGT RAIN  60  58  92 NE17G29   29.73S
LEONARDTOWN*   CLOUDY    57  55  94 NE8       29.78S

$$

MDZ003>005-251600-
NORTH CENTRAL MARYLAND

CITY           SKY/WX    TMP DP  RH WIND       PRES   REMARKS
FREDERICK*     CLOUDY    57  57 100 N12       29.93F FOG
HAGERSTOWN APT CLOUDY    57  52  83 NE13      29.92F
WESTMINSTER*   DRIZZLE   55  54  94 NE15      29.91F

$$

MDZ501>502-251600-
WESTERN MARYLAND

CITY           SKY/WX    TMP DP  RH WIND       PRES   REMARKS
OAKLAND*       FOG       46  46 100 E10G21    29.88F VSB<1/4
CUMBERLAND*    CLOUDY    54  50  87 N3        29.96F

$$

VAZ025>031-251600-
SHENANDOAH VALLEY

CITY           SKY/WX    TMP DP  RH WIND       PRES   REMARKS
WINCHESTER*    CLOUDY    50  48  93 N6        29.88F FOG
FRONT ROYAL*   CLOUDY    50  50 100 N5        29.87F
LURAY*         RAIN      50  50 100 N13G20    29.85F
NEW MARKET*    CLOUDY    51  49  94 N14G21    29.86F
STAUNTON*      DRIZZLE   51  50  97 N13       29.84F
WAYNESBORO*    CLOUDY    49  49 100 N10       29.81F

$$

WVZ021-048>050-054>055-251600-
EASTERN WEST VIRGINIA PANHANDLE

CITY           SKY/WX    TMP DP  RH WIND       PRES   REMARKS
MARTINSBURG    CLOUDY    52  49  89 N12       29.90F
PETERSBURG*    DRIZZLE   51  50  95 CALM      29.93S

$$

VAZ036>039-050-251600-
CENTRAL FOOTHILLS

CITY           SKY/WX    TMP DP  RH WIND       PRES   REMARKS
CHARLOTTESVILL LGT RAIN  58  55  90 N18G26    29.77F
CULPEPER*      DRIZZLE   56  56  97 N13       29.83S
ORANGE*        RAIN      54  52  94 NE14G21   29.79F
GORDONSVILLE*  CLOUDY    55  54  98 NE14G25   29.77F
WARRENTON*     DRIZZLE   56  53  89 N9        29.82S

$$

VAZ055>057-251600-
NORTH AND CENTRAL PIEDMONT

CITY           SKY/WX    TMP DP  RH WIND       PRES   REMARKS
FREDERICKSBRG* RAIN      58  58 100 N9G18     29.75F
STAFFORD*      RAIN      57  57 100 NE15G21   29.82F

$$

NCZ024-NYZ072-PAZ021-071-VAZ022-071-251600-
OTHER REGIONAL OBSERVATIONS

CITY           SKY/WX    TMP DP  RH WIND       PRES   REMARKS
NEW YORK CITY  CLOUDY    51  50  96 NE10G24   30.12S
PHILADELPHIA   CLOUDY    55  52  89 NE17G26   29.98F
PITTSBURGH     CLOUDY    53  51  93 E12       29.91F
ROANOKE        LGT RAIN  55  54  96 NE8       29.78F
RICHMOND       LGT RAIN  62  61  96 NE18      29.66F VSB 3/4
RALEIGH        PTSUNNY   60  58  92 N9        29.64R

$$

ANZ530>537-251600-
MARINE OBSERVATIONS

STATION/POSITION TIME  TEMP    WIND        PRES
                       AIR SEA DIR/SP/G
                 (UTC) (F)     (DEG/KT/KT) (MB)
THOMAS PT LIGHT  1500   56 56   30/ 22/ 24   N/A
BALT KEY BRIDGE  1448   57      50/ 19/ 24 1011.3F
COVE POINT       1448   58      70/ 26/ 31 1008.5F
LEWISETTA        1448   60 61   70/ 21/ 31 1005.6F
SOLOMONS ISLAND  1448   59 60   40/ 15/ 25   N/A
PINEY POINT      1448           70/ 17/ 21   N/A

$$





USA.gov is the U.S. government's official web portal to all federal, state and local government web resources and services.